Terminal Aerodrome Forecast
Issued by NWS Charleston, WV

Current Version | Previous Version | Graphics & Text | Print | Product List | Glossary On
Versions: 1 2 3 4 5 6 7 8 9 10 11 12 13 14 15 16 17 18 19 20 21 22 23
602
FTUS41 KRLX 242343
TAFBKW
TAF
KBKW 242343Z 2500/2524 14016G24KT 5SM SHRA OVC015
     FM250500 17008KT P6SM SHRA BKN030
     FM250800 21007KT P6SM SHRA BKN009
     FM251300 22009KT P6SM SHRA BKN011
     FM252300 25010G16KT P6SM SHRA OVC008=

USA.gov is the U.S. government's official web portal to all federal, state and local government web resources and services.